Location: Feigenhofen
(48.4939°N, 10.7793°E)
Time: 05:20:21
(UTC+00:00)

Meteor 2-10 Rocket - Pass Details

Date: 26 May 2022
Orbit: 734 x 884 km, 81.2° (Epoch: 24 June)

Event Time Altitude Azimuth Distance (km) Brightness Sun altitude
Rises 00:30:09 0° 346° (NNW) 3,467 7.9 -18.4°
Reaches altitude 10° 00:32:38 10° 346° (NNW) 2,509 7.0 -18.2°
Maximum altitude 00:38:20 76° 261° (W) 867 3.6 -17.9°
Enters shadow 00:41:17 28° 181° (S) 1,492 4.5 -17.7°
